FW5799 Weather Reports


time (UTC)temp
C
wind
direction
speed
KPH
gust
KPH
rain 1hr
cm
rain 24hr
cm
rain mn
cm
humidity
%
barometer
mb
20260502231555 13 360 0.0 3.2 0.28 0.30 0.28 93 1014.5
20260502230056 14 0 0.0 4.8 0.13 0.15 0.13 91 1015.0
20260502224555 15 360 1.6 12.9 0.03 0.05 0.03 87 1015.1
20260502223054 16 0 0.0 0.0 0.00 0.00 0.00 86 1015.2
20260502221557 16 0 0.0 0.0 0.00 0.00 0.00 85 1014.9
20260502220055 16 0 0.0 0.0 0.00 0.00 0.00 85 1014.7
20260502214605 16 0 0.0 0.0 0.00 0.00 0.00 85 1013.9
20260502213059 16 0 0.0 3.2 0.00 0.00 0.00 84 1013.8
20260502211558 16 0 0.0 3.2 0.00 0.00 0.00 83 1014.0
20260502210121 16 0 0.0 4.8 0.00 0.00 0.00 82 1014.2
20260502204558 17 0 0.0 3.2 0.00 0.00 0.00 79 1014.7
20260502203058 17 167 1.6 8.0 0.00 0.00 0.00 76 1015.0
20260502201610 17 49 0.0 3.2 0.00 0.00 0.00 73 1015.0
20260502200057 18 0 0.0 1.6 0.00 0.00 0.00 72 1015.0
20260502194557 18 0 0.0 1.6 0.00 0.00 0.00 71 1014.9
20260502193058 18 0 0.0 4.8 0.00 0.00 0.00 70 1014.9
20260502191556 19 0 0.0 8.0 0.00 0.00 0.00 69 1014.9
20260502190059 19 12 1.6 8.0 0.00 0.00 0.00 68 1014.8
20260502184611 20 320 3.2 12.9 0.00 0.00 0.00 67 1014.7
20260502183103 21 0 0.0 3.2 0.00 0.00 0.00 64 1014.5
20260502181609 21 0 0.0 4.8 0.00 0.00 0.00 65 1014.5
20260502163059 23 285 1.6 11.3 0.00 0.00 0.00 59 1015.4
20260502161559 23 289 1.6 9.7 0.00 0.00 0.00 58 1015.6
20260502151622 24 167 1.6 9.7 0.00 0.00 0.00 58 1016.3
20260502150109 23 0 0.0 11.3 0.00 0.00 0.00 58 1016.4
20260502123105 22 0 1.6 14.5 0.00 0.00 0.00 59 1017.8
20260502121557 22 179 3.2 17.7 0.00 0.00 0.00 57 1017.8
20260502114600 23 254 1.6 9.7 0.00 0.00 0.00 57 1017.9
20260502113057 23 267 3.2 11.3 0.00 0.00 0.00 56 1018.2
20260502111601 23 201 0.0 14.5 0.00 0.00 0.00 56 1018.3
20260502104558 22 275 3.2 11.3 0.00 0.00 0.00 58 1018.5
20260502103103 22 169 1.6 11.3 0.00 0.00 0.00 58 1018.5
20260502101631 22 209 1.6 11.3 0.00 0.00 0.00 57 1018.6
20260502100122 21 360 3.2 9.7 0.00 0.00 0.00 59 1018.7
20260502080104 13 0 0.0 3.2 0.00 0.00 0.00 82 1019.3
20260502070059 15 0 0.0 4.8 0.00 0.00 0.00 58 1019.2
20260502064602 15 273 0.0 4.8 0.00 0.00 0.00 58 1019.1
20260502063102 15 189 0.0 12.9 0.00 0.00 0.00 59 1019.1
20260502061559 13 0 1.6 12.9 0.00 0.00 0.00 65 1019.1
20260502060058 12 0 0.0 3.2 0.00 0.00 0.00 67 1019.2
20260502054559 10 0 0.0 1.6 0.00 0.00 0.00 79 1018.9
20260502053113 7 0 0.0 1.6 0.00 0.00 0.00 81 1019.0
20260502051559 7 0 0.0 0.0 0.00 0.00 0.00 81 1018.9
20260502050059 6 0 0.0 0.0 0.00 0.00 0.00 81 1019.0
20260502044556 6 0 0.0 0.0 0.00 0.00 0.00 82 1018.9
20260502043108 6 0 0.0 0.0 0.00 0.00 0.00 83 1019.2
20260502041603 6 0 0.0 0.0 0.00 0.00 0.00 82 1019.3
20260502040100 6 0 0.0 1.6 0.00 0.00 0.00 81 1019.2
20260502034557 6 0 0.0 1.6 0.00 0.00 0.00 81 1019.3
20260502033103 6 0 0.0 1.6 0.00 0.00 0.00 80 1019.5
20260502031602 6 0 0.0 1.6 0.00 0.00 0.00 79 1019.7
20260502030101 6 0 0.0 1.6 0.00 0.00 0.00 79 1019.7
20260502024558 6 0 0.0 1.6 0.00 0.00 0.00 79 1019.7
20260502023110 6 0 0.0 0.0 0.00 0.00 0.00 78 1019.9
20260502021558 7 0 0.0 1.6 0.00 0.00 0.00 78 1019.9
20260502020056 7 0 0.0 1.6 0.00 0.00 0.00 77 1020.0
20260502014600 7 0 0.0 0.0 0.00 0.00 0.00 76 1020.1
20260502013058 7 0 0.0 0.0 0.00 0.00 0.00 76 1020.1
20260502011600 7 0 0.0 0.0 0.00 0.00 0.00 76 1020.2
20260502010058 7 0 0.0 0.0 0.00 0.00 0.00 75 1020.4
20260502004611 8 0 0.0 0.0 0.00 0.00 0.00 74 1020.6
20260502003057 8 0 0.0 0.0 0.00 0.00 0.00 73 1020.7
20260502001556 8 0 0.0 0.0 0.00 0.00 0.00 73 1020.9
20260501234600 9 0 0.0 0.0 0.00 0.00 0.00 71 1021.2
20260501233100 9 0 0.0 0.0 0.00 0.00 0.00 71 1021.2